Content
SEND FEEDBACK

Daily
Averages
Monthly
Summary
Montenegro

TIVAT, MONTENEGRO


Home > Europe > Montenegro
Elevation: 4 meters     Latitude: 42 24N     Longitude: 018 44E

WEATHER
 
SELECT A DAY
Number of Records: 280,616;   Date Range: 7/1/96 - 10/24/14
 
SHARE

PRINT THIS DATA

[ ← Previous Day ]
WEATHER ALMANAC - 31 JANUARY, 2013
[ Next Day → ]
[ °F ]   °C
Weather ElementAverageHighLow
Temperature6.2 °C17 °C (2:00 pm)0 °C (4:00 am)
Dewpoint2.4 °C6 °C (2:30 pm)-1 °C (1:30 pm)
Humidity79 %100 % (1:30 am)31 % (1:30 pm)
Barometer1019 hPa1021 hPa (7:00 pm)1017.3 hPa (4:00 am)
Wind Speed4.8 km/h18.5 km/h (12:00 pm)
Wind Gust37 km/h (2:00 pm)
Weather ElementAverage
Visibility12.6 km
Wind DirectionENE (75.7 °)

Weather ElementTotal
Precipitation---
Heating Degree Days9.8 (Base 18.3)
Averaged from 53 records on 31 January, 2013
WEATHER CONDITIONS BREAKOUT
WIND DIRECTION BREAKOUT
WEATHER BY HOUR - 31 JANUARY, 2013
[ °F ]   °C
Local TimeTemperatureDewpointHumidityBarometerVisibilityWind DirectionWind SpeedGust SpeedPrecipitationEventsConditions
12:30 AM2 °C1 °C93 %1019 hPaCalmClear
1:00 AM0.6 °C0 °C93 %1019 hPa19.3 kmEast (90°)3.5 km/h
1:00 AM1 °C0 °C93 %1017.9 hPaVariable3.7 km/hClear
1:30 AM1 °C1 °C100 %1017.9 hPaVariable3.7 km/hClear
2:00 AM1 °C0 °C93 %1019 hPaVariable1.9 km/hClear
2:30 AM1 °C0 °C93 %1017.9 hPaVariable3.7 km/hClear
3:00 AM1 °C0 °C93 %1017.9 hPaWest (280°)5.6 km/hClear
3:30 AM1 °C0 °C93 %1017.9 hPaVariable3.7 km/hClear
4:00 AM0.6 °C-0.6 °C91 %1017.9 hPa19.3 kmCalm
4:00 AM0 °C0 °C100 %1017.3 hPaVariable1.9 km/hClear
4:30 AM1 °C0 °C93 %1017.9 hPaCalmClear
5:00 AM0 °C0 °C100 %1017.3 hPaVariable3.7 km/hClear
5:30 AM2 °C1 °C93 %1017.9 hPaVariable1.9 km/hClear
6:00 AM2 °C1 °C93 %1017.9 hPaEast (80°)5.6 km/hClear
6:30 AM2 °C2 °C100 %1017.9 hPa10 kmVariable3.7 km/hPartly Cloudy
7:00 AM1.7 °C1.1 °C94 %1018.6 hPa19.3 kmCalmScattered Clouds
7:00 AM2 °C1 °C93 %1017.9 hPa10 kmVariable3.7 km/hPartly Cloudy
7:30 AM2 °C2 °C100 %1017.9 hPa10 kmVariable3.7 km/hScattered Clouds
8:00 AM3 °C2 °C93 %1017.9 hPa10 kmVariable3.7 km/hScattered Clouds
8:30 AM5 °C4 °C93 %1019 hPa10 kmVariable1.9 km/hScattered Clouds
9:00 AM6 °C5 °C93 %1020 hPa10 kmVariable1.9 km/hPartly Cloudy
9:30 AM6 °C5 °C93 %1020 hPa10 kmVariable3.7 km/hPartly Cloudy
10:00 AM6.7 °C5.6 °C88 %1020.3 hPa14.5 kmWNW (290°)3.5 km/hRainLight Rain
10:00 AM6 °C5 °C93 %1020 hPa10 kmVariable3.7 km/hRainLight Rain
10:30 AM8 °C5 °C81 %1017.9 hPa10 kmWest (280°)11.1 km/hPartly Cloudy
11:00 AM10 °C5 °C71 %1019 hPa10 kmVariable3.7 km/hPartly Cloudy
11:30 AM14 °C4 °C51 %1020 hPa10 kmVariable3.7 km/hPartly Cloudy
12:00 PM13 °C5 °C58 %1020 hPaWest (270°)18.5 km/hClear
12:30 PM14 °C5 °C55 %1020 hPaWest (280°)13 km/hClear
1:00 PM14.4 °C4.4 °C39 %1019 hPa19.3 kmWNW (290°)7.2 km/hScattered Clouds
1:00 PM15 °C4 °C48 %1019 hPa10 kmVariable9.3 km/hPartly Cloudy
1:30 PM16 °C-1 °C31 %1017.9 hPa10 kmNNW (340°)9.3 km/h33.3 km/hPartly Cloudy
2:00 PM17 °C0 °C32 %1019 hPa10 kmNNE (30°)13 km/h37 km/hPartly Cloudy
2:30 PM15 °C6 °C55 %1019 hPa10 kmNW (320°)14.8 km/hPartly Cloudy
3:00 PM14 °C6 °C59 %1019 hPa10 kmWest (280°)14.8 km/hPartly Cloudy
3:30 PM15 °C6 °C55 %1019 hPa10 kmNNW (340°)9.3 km/hPartly Cloudy
4:00 PM14.4 °C4.4 °C40 %1019.6 hPa19.3 kmCalmScattered Clouds
4:00 PM14 °C4 °C51 %1019 hPa10 kmVariable3.7 km/hPartly Cloudy
4:30 PM13 °C6 °C63 %1019 hPa10 kmNNW (340°)5.6 km/hPartly Cloudy
5:00 PM13 °C4 °C54 %1019 hPaVariable9.3 km/hClear
5:30 PM10 °C5 °C71 %1020 hPaNNE (30°)5.6 km/hClear
6:00 PM10 °C5 °C71 %1020 hPaVariable3.7 km/hClear
6:30 PM7 °C4 °C81 %1020 hPaVariable3.7 km/hClear
7:00 PM5.6 °C2.8 °C75 %1021 hPa19.3 kmESE (110°)3.5 km/hPartly Cloudy
7:00 PM5 °C3 °C87 %1021 hPaVariable3.7 km/hClear
7:30 PM5 °C2 °C81 %1020 hPaVariable1.9 km/hClear
8:00 PM4 °C2 °C87 %1021 hPaVariable1.9 km/hClear
9:30 PM2 °C1 °C93 %1020 hPaVariable3.7 km/hClear
10:00 PM1.7 °C0 °C85 %1021 hPa19.3 kmCalm
10:00 PM2 °C0 °C87 %1020 hPaVariable1.9 km/hClear
10:30 PM1 °C0 °C93 %1020 hPaVariable3.7 km/hClear
11:00 PM1 °C-1 °C87 %1020 hPaENE (60°)5.6 km/hClear
11:30 PM1 °C-1 °C87 %1020 hPaVariable1.9 km/hClear
Hourly data recorded from LYTV, located 0 kilometers away from Tivat, Montenegro







STORIES FROM OUR PARTNERS